Date String (YYYY-MM-DD hh:mm:ss) UTC,Instrument flags,absolute air pressure of the measurement (hPa),sample flow rate (lpm),inlet stack bypass flow (lpm),air temperature of the measurement (°C),ambient temperature measured by the external sensor (°C),aerosol sample conditioner tube jacket temperature (°C),OPC LED temperature (°C),internal box temperature (°C),relative humidity of the measurement (%),span deviation,mass concentration of particles derived from Lorenz-Mie calculation of OPC scattering (μg/m³),mass concentration of particles derived from Lorenz-Mie calculation of OPC scattering (μg/m³),mass concentration of particles derived from Lorenz-Mie calculation of OPC scattering (μg/m³)
DateTimeUTC,F1_M11,P_M11,Q1_M11,Q2_M11,T1_M11,T2_M11,T3_M11,T4_M11,T5_M11,U1_M11,ZSPAN_M11,X0_M11,X2_M11,X1_M11
2023-11-10 13:00:00,SystemResetWarning,0831.7,5.01,000.00,020.4,020.1,000.0,028.7,022.4,11.8,0000.0,0006.01,0003.72,0003.27
2023-11-10 13:01:00,SystemResetWarning,0831.7,4.99,000.00,020.5,020.1,000.0,028.7,022.2,11.7,0000.0,0005.83,0003.70,0003.26
2023-11-10 13:02:00,SystemResetWarning,0831.6,4.99,000.00,020.5,020.1,000.0,028.7,022.1,11.7,0000.0,0005.58,0003.67,0003.25
2023-11-10 13:03:00,SystemResetWarning,0831.6,5.01,000.00,020.5,020.0,000.0,028.7,022.0,11.6,0000.0,0005.59,0003.65,0003.24
2023-11-10 13:04:00,SystemResetWarning,0831.6,5.01,000.00,020.5,019.9,000.0,028.7,022.0,11.4,0000.0,0005.61,0003.63,0003.23
2023-11-10 13:05:00,SystemResetWarning,0831.6,5.00,000.00,020.5,019.8,000.0,028.7,021.9,11.3,0000.0,0005.73,0003.63,0003.22
2023-11-10 13:06:00,SystemResetWarning,0831.6,5.00,000.00,020.5,019.8,000.0,028.7,021.8,11.3,0000.0,0005.92,0003.65,0003.20
2023-11-10 13:07:00,SystemResetWarning,0831.6,4.99,000.00,020.5,019.8,000.0,028.7,021.9,11.2,0000.0,0006.00,0003.66,0003.19
2023-11-10 13:08:00,SystemResetWarning,0831.6,4.99,000.00,020.5,019.7,000.0,028.7,021.9,11.3,0000.0,0007.39,0003.65,0003.16
2023-11-10 13:09:00,SystemResetWarning,0831.6,5.00,000.00,020.5,019.7,000.0,028.7,021.8,11.3,0000.0,0007.82,0003.61,0003.14
2023-11-10 13:10:00,SystemResetWarning,0831.6,5.01,000.00,020.4,019.6,000.0,028.8,021.8,11.4,0000.0,0007.79,0003.59,0003.12
2023-11-10 13:11:00,SystemResetWarning,0831.6,5.01,000.00,020.4,019.5,000.0,028.8,021.7,11.6,0000.0,0007.75,0003.55,0003.10
2023-11-10 13:12:00,SystemResetWarning,0831.6,5.00,000.00,020.4,019.5,000.0,028.8,021.7,11.6,0000.0,0007.87,0003.56,0003.09
2023-11-10 13:13:00,SystemResetWarning,0831.6,4.99,000.00,020.4,019.5,000.0,028.8,021.7,11.6,0000.0,0007.90,0003.54,0003.06
2023-11-10 13:14:00,SystemResetWarning,0831.7,5.00,000.00,020.4,019.4,000.0,028.8,021.7,11.6,0000.0,0007.87,0003.54,0003.04
2023-11-10 13:15:00,SystemResetWarning,0831.6,4.99,000.00,020.4,019.4,000.0,028.7,021.7,11.6,0000.0,0007.98,0003.57,0003.06
2023-11-10 13:16:00,SystemResetWarning,0831.6,5.00,000.00,020.3,019.4,000.0,028.7,021.7,11.6,0000.0,0007.97,0003.56,0003.06
2023-11-10 13:17:00,SystemResetWarning,0831.6,4.99,000.00,020.3,019.4,000.0,028.7,021.7,11.6,0000.0,0007.94,0003.55,0003.05
2023-11-10 13:18:00,SystemResetWarning,0831.7,5.01,000.00,020.3,019.3,000.0,028.7,021.7,11.6,0000.0,0008.50,0003.55,0003.05
2023-11-10 13:19:00,SystemResetWarning,0831.7,5.01,000.00,020.3,019.3,000.0,028.7,021.6,11.7,0000.0,0007.86,0003.54,0003.05
2023-11-10 13:20:00,SystemResetWarning,0831.7,5.00,000.00,020.3,019.3,000.0,028.7,021.6,11.7,0000.0,0007.33,0003.53,0003.08
2023-11-10 13:21:00,SystemResetWarning,0831.7,4.99,000.00,020.3,019.3,000.0,028.7,021.5,11.6,0000.0,0007.21,0003.52,0003.10
2023-11-10 13:22:00,SystemResetWarning,0831.7,4.99,000.00,020.3,019.3,000.0,028.7,021.6,11.5,0000.0,0007.28,0003.54,0003.12
2023-11-10 13:23:00,SystemResetWarning,0831.7,5.00,000.00,020.3,019.3,000.0,028.7,021.6,11.5,0000.0,0007.44,0003.55,0003.14
2023-11-10 13:24:00,SystemResetWarning,0831.8,5.01,000.00,020.3,019.3,000.0,028.7,021.6,11.5,0000.0,0007.93,0003.59,0003.16
2023-11-10 13:25:00,SystemResetWarning,0831.7,5.01,000.00,020.3,019.3,000.0,028.7,021.6,11.5,0000.0,0008.29,0003.60,0003.16
2023-11-10 13:26:00,SystemResetWarning,0831.7,4.99,000.00,020.3,019.3,000.0,028.7,021.6,11.6,0000.0,0008.50,0003.56,0003.14
2023-11-10 13:27:00,SystemResetWarning,0831.7,4.99,000.00,020.3,019.3,000.0,028.7,021.6,11.8,0000.0,0008.41,0003.55,0003.14
2023-11-10 13:28:00,SystemResetWarning,0831.7,4.99,000.00,020.3,019.3,000.0,028.7,021.6,11.8,0000.0,0008.36,0003.55,0003.15
2023-11-10 13:29:00,SystemResetWarning,0832.1,5.01,000.00,020.3,019.3,000.0,028.7,021.6,11.8,0000.0,0007.79,0003.52,0003.15
2023-11-10 13:30:00,SystemResetWarning,0832.3,5.01,000.00,020.3,019.3,000.0,028.7,021.6,11.9,0000.0,0007.64,0003.55,0003.16
2023-11-10 13:31:00,SystemResetWarning,0832.2,5.01,000.00,020.3,019.4,000.0,028.7,021.6,11.9,0000.0,0008.27,0003.66,0003.19
2023-11-10 13:32:00,SystemResetWarning,0831.8,5.00,000.00,020.3,019.4,000.0,028.7,021.6,11.9,0000.0,0008.54,0003.69,0003.20
2023-11-10 13:33:00,SystemResetWarning,0831.8,4.99,000.00,020.3,019.5,000.0,028.7,022.0,11.8,0000.0,0008.58,0003.72,0003.21
2023-11-10 13:34:00,SystemResetWarning,0831.9,5.01,000.00,020.5,020.3,000.0,028.7,022.5,11.7,0000.0,0008.67,0003.75,0003.23
2023-11-10 13:35:00,SystemResetWarning,0831.9,4.99,000.00,020.6,020.7,000.0,028.8,022.6,11.6,0000.0,0008.25,0003.75,0003.25
2023-11-10 13:36:00,SystemResetWarning,0832.0,4.99,000.00,020.7,020.6,000.0,028.8,022.5,11.5,0000.0,0008.25,0003.74,0003.28
2023-11-10 13:37:00,SystemResetWarning,0832.0,5.01,000.00,020.7,020.5,000.0,028.8,022.4,11.5,0000.0,0008.66,0003.78,0003.30
2023-11-10 13:38:00,SystemResetWarning,0832.0,5.01,000.00,020.7,020.4,000.0,028.8,022.3,11.6,0000.0,0008.70,0003.79,0003.31
2023-11-10 13:39:00,SystemResetWarning,0832.0,5.00,000.00,020.7,020.3,000.0,028.9,022.2,11.6,0000.0,0008.82,0003.84,0003.33
2023-11-10 13:40:00,SystemResetWarning,0832.0,4.99,000.00,020.7,020.2,000.0,028.9,022.2,11.5,0000.0,0008.80,0003.86,0003.35
2023-11-10 13:41:00,SystemResetWarning,0832.0,4.99,000.00,020.7,020.2,000.0,028.9,022.1,11.5,0000.0,0008.80,0003.88,0003.37
2023-11-10 13:42:00,SystemResetWarning,0832.0,5.01,000.00,020.7,020.1,000.0,028.9,022.1,11.6,0000.0,0008.37,0003.84,0003.37
2023-11-10 13:43:00,SystemResetWarning,0832.0,5.01,000.00,020.7,020.0,000.0,028.9,022.0,11.7,0000.0,0008.10,0003.83,0003.36
2023-11-10 13:44:00,SystemResetWarning,0832.0,5.01,000.00,020.7,020.0,000.0,028.9,022.1,11.7,0000.0,0008.32,0003.81,0003.35
2023-11-10 13:45:00,SystemResetWarning,0832.0,5.00,000.00,020.7,020.0,000.0,028.9,022.1,11.7,0000.0,0008.35,0003.79,0003.33
2023-11-10 13:46:00,SystemResetWarning,0832.0,4.99,000.00,020.7,019.9,000.0,028.9,022.1,11.7,0000.0,0008.43,0003.84,0003.33
2023-11-10 13:47:00,SystemResetWarning,0832.0,5.00,000.00,020.6,019.9,000.0,028.9,022.1,11.7,0000.0,0008.31,0003.91,0003.34
2023-11-10 13:48:00,SystemResetWarning,0832.0,5.00,000.00,020.6,019.9,000.0,028.9,022.0,11.8,0000.0,0007.46,0003.90,0003.34
2023-11-10 13:49:00,SystemResetWarning,0832.0,5.00,000.00,020.6,019.9,000.0,028.9,022.1,11.9,0000.0,0007.48,0003.91,0003.35
2023-11-10 13:50:00,SystemResetWarning,0832.1,5.01,000.00,020.6,019.9,000.0,028.9,022.0,11.8,0000.0,0007.46,0003.91,0003.36
2023-11-10 13:51:00,SystemResetWarning,0832.1,5.00,000.00,020.6,019.8,000.0,028.9,022.0,11.8,0000.0,0007.55,0003.94,0003.36
2023-11-10 13:52:00,SystemResetWarning,0832.1,5.01,000.00,020.6,019.8,000.0,029.0,022.0,11.8,0000.0,0008.34,0004.03,0003.39
2023-11-10 13:53:00,SystemResetWarning,0832.1,5.00,000.00,020.6,019.8,000.0,029.0,022.0,12.0,0000.0,0008.67,0004.08,0003.40
2023-11-10 13:54:00,SystemResetWarning,0832.2,5.00,000.00,020.6,019.8,000.0,029.0,022.0,12.0,0000.0,0008.75,0004.11,0003.41
2023-11-10 13:55:00,SystemResetWarning,0832.2,4.99,000.00,020.6,019.8,000.0,029.0,022.0,12.1,0000.0,0008.56,0004.15,0003.44
2023-11-10 13:56:00,SystemResetWarning,0832.2,4.99,000.00,020.6,019.8,000.0,029.0,022.0,12.2,0000.0,0008.41,0004.19,0003.46
2023-11-10 13:57:00,SystemResetWarning,0832.2,4.99,000.00,020.6,019.8,000.0,029.0,022.0,12.2,0000.0,0008.28,0004.17,0003.46
2023-11-10 13:58:00,SystemResetWarning,0832.2,5.00,000.00,020.6,019.8,000.0,029.0,022.0,12.2,0000.0,0008.26,0004.15,0003.47
2023-11-10 13:59:00,SystemResetWarning,0832.2,5.00,000.00,020.6,019.8,000.0,029.0,022.0,12.1,0000.0,0008.45,0004.20,0003.50
